sat.trackr.live / text

‹ back to catalog

GONETS-M 17

NORAD 46486 · 2020-068A

PAYLOAD ACTIVE UNKNOWN

§ Identity

Operator
Country
CIS
Launch date
2020-09-28
Launch site
PLMSC
Launch vehicle
Mass (kg)
RCS (m²)

External: N2YO · Heavens-Above · Gunter

§ Orbital elements

Epoch: 2026-09-20T02:47:05.843904Z

Period
115.86 min
Inclination
82.4949°
Eccentricity
0.0022478
Mean motion
12.42887165 rev/d
Perigee alt
1,476.7 km
Apogee alt
1,512.1 km
Semi-major
7,872.5 km
B*
2.8876e-4
RAAN
288.4515°
Arg perigee
185.1361°
Mean anomaly
174.9492°
Rev number
27,095

§ Raw data

GONETS-M 171 46486U 20068A   26263.11603986  .00000050  00000+0  28876-3 0  99952 46486  82.4949 288.4515 0022478 185.1361 174.9492 12.42887165270950

JSON: /api/v1/satellites/46486 · /tle

For live sub-satellite position, see the globe view (requires WebGL).

§ Visibility from observer

Set your observer location to see the next 7 days of passes ≥ 10°. The values pass through the URL so the page stays shareable.

No JS? Fill the form by hand. The geolocation button needs JavaScript.

§ Radio — SatNOGS DB

ModeDescriptionDownlinkUplink
FM UHF Unknown 387.175 MHz
FM UHF Unknown 387.775 MHz
FM UHF Unknown 388.687 MHz
FM UHF Unknown 388.787 MHz

4 transmitters · refreshed weekly from db.satnogs.org